This demonstration page uses our WeatherBlox Daily Observations layout. Learn more.

Left ArrowRight Arrow

31.31129, -92.44514

Hourly Observations for August 22, 2016

Temp ( °F °C ) Dew Point ( °F °C ) Humidity (%) Winds ( mph kmh ) Pressure ( in mb ) Visibility ( mi km ) Precip ( " mm )
12:53 am 00:53 Clear with Mist and Fog 74 23.3 74 23.3 100 100 Calm 30.04 1017 6 10 0.00 0.00
1:03 am 01:03 Partly Cloudy with Mist and Fog 73 22.8 73 22.8 100 100 SSE 3 6 30.03 1017 5 8 0.00 0.00
1:12 am 01:12 Mostly Cloudy 74 23.3 74 23.3 100 100 Calm 30.03 1017 7 11 0.00 0.00
1:38 am 01:38 Partly Cloudy 74 23.3 73 22.8 97 97 ESE 3 6 30.03 1017 8 13 0.00 0.00
1:53 am 01:53 Clear with Mist and Fog 73 22.8 73 22.8 100 100 SSE 3 6 30.02 1017 5 8 0.00 0.00
1:58 am 01:58 Mostly Clear with Mist and Fog 73 22.8 73 22.8 100 100 SSE 3 6 30.00 1016 3 4 0.00 0.00
2:02 am 02:02 Mostly Cloudy with Mist and Fog 73 22.8 73 22.8 100 100 SSE 3 6 30.03 1017 1 2 0.00 0.00
2:23 am 02:23 Mostly Cloudy with Fog 73 22.8 73 22.8 100 100 SSW 3 6 30.03 1017 1 1 0.00 0.00
2:35 am 02:35 Mostly Cloudy with Fog 74 23.3 74 23.3 100 100 Calm 30.03 1017 0 0 0.00 0.00
2:53 am 02:53 Mostly Cloudy with Fog 74 23.3 74 23.3 100 100 Calm 30.04 1017 1 1 0.00 0.00
3:01 am 03:01 Mostly Cloudy with Fog 74 23.3 74 23.3 100 100 Calm 30.03 1017 0 0 0.00 0.00
3:36 am 03:36 Mostly Cloudy with Fog 74 23.3 74 23.3 100 100 Calm 30.03 1017 1 1 0.00 0.00
3:53 am 03:53 Mostly Cloudy with Fog 74 23.3 74 23.3 100 100 Calm 30.04 1017 1 1 0.00 0.00
4:53 am 04:53 Mostly Cloudy with Mist and Fog 74 23.3 74 23.3 100 100 Calm 30.05 1018 1 1 0.00 0.00
5:05 am 05:05 Cloudy with Mist and Fog 74 23.3 74 23.3 100 100 Calm 30.03 1017 2 2 0.00 0.00
5:14 am 05:14 Cloudy with Mist and Fog 74 23.3 74 23.3 100 100 Calm 30.03 1017 3 4 0.00 0.00
5:29 am 05:29 Cloudy with Mist and Fog 73 22.8 73 22.8 100 100 Calm 30.06 1018 3 5 0.00 0.00
5:53 am 05:53 Cloudy with Mist and Fog 73 22.8 73 22.8 100 100 Calm 30.06 1018 4 6 0.00 0.00
6:53 am 06:53 Cloudy with Mist and Fog 73 22.8 73 22.8 100 100 Calm 30.08 1019 3 4 0.00 0.00
7:19 am 07:19 Cloudy with Mist and Fog 73 22.8 73 22.8 100 100 Calm 30.09 1019 1 1 0.00 0.00
7:41 am 07:41 Mostly Cloudy with Fog 74 23.3 74 23.3 100 100 Calm 30.09 1019 0 0 0.00 0.00
7:53 am 07:53 Mostly Cloudy with Fog 74 23.3 74 23.3 100 100 Calm 30.10 1019 0 0 0.00 0.00
8:04 am 08:04 Mostly Cloudy with Fog 74 23.3 74 23.3 100 100 Calm 30.09 1019 1 1 0.00 0.00
8:22 am 08:22 Cloudy with Mist and Fog 74 23.3 74 23.3 100 100 Calm 30.09 1019 2 3 0.00 0.00
8:30 am 08:30 Cloudy with Mist and Fog 74 23.3 74 23.3 100 100 Calm 30.09 1019 4 6 0.00 0.00
8:53 am 08:53 Cloudy with Mist and Fog 75 23.9 75 23.9 100 100 SE 3 6 30.11 1020 5 8 0.00 0.00
9:27 am 09:27 Partly Cloudy 77 25 76 24.4 96 96 Calm 30.12 1020 8 13 0.00 0.00
9:53 am 09:53 Partly Cloudy 79 26.1 75 23.9 88 88 Calm 30.12 1020 9 14 0.00 0.00
10:53 am 10:53 Sunny 84 28.9 77 25 80 80 VRB 3 6 30.12 1020 10 16 0.00 0.00
11:53 am 11:53 Mostly Cloudy 86 30 75 23.9 70 70 Calm 30.11 1020 10 16 0.00 0.00
12:53 pm 12:53 Mostly Cloudy 88 31.1 75 23.9 66 66 VRB 3 6 30.10 1019 10 16 0.00 0.00
1:53 pm 13:53 Sunny 91 32.8 75 23.9 59 59 SE 6 9 30.08 1019 10 16 0.00 0.00
2:53 pm 14:53 Mostly Cloudy 89 31.7 75 23.9 63 63 S 5 7 30.08 1019 10 16 0.00 0.00
3:53 pm 15:53 Mostly Sunny 89 31.7 75 23.9 63 63 SE 8 13 30.06 1018 10 16 0.00 0.00
4:34 pm 16:34 Mostly Cloudy with Thunderstorms 87 30.6 75 23.9 67 67 SW 13 20 30.06 1018 10 16 0.00 0.00
4:53 pm 16:53 Mostly Cloudy with Thunderstorms 84 28.9 73 22.8 70 70 WNW 8 13 30.08 1019 10 16 0.00 0.00
5:24 pm 17:24 Mostly Cloudy with Nearby Thunderstorms 82 27.8 74 23.3 77 77 W 7 11 30.09 1019 10 16 0.00 0.00
5:53 pm 17:53 Partly Cloudy 80 26.7 75 23.9 85 85 N 6 9 30.08 1019 9 14 0.00 0.00
6:53 pm 18:53 Sunny 79 26.1 75 23.9 88 88 NE 3 6 30.11 1020 9 14 0.00 0.00
7:53 pm 19:53 Clear 78 25.6 75 23.9 90 90 NNE 3 6 30.13 1020 10 16 0.00 0.00
8:53 pm 20:53 Clear 76 24.4 75 23.9 97 97 Calm 30.15 1021 9 14 0.00 0.00
9:53 pm 21:53 Clear 75 23.9 74 23.3 96 96 NE 5 7 30.14 1021 10 16 0.00 0.00
10:53 pm 22:53 Clear 75 23.9 74 23.3 96 96 SE 3 6 30.14 1021 10 16 0.00 0.00
11:53 pm 23:53 Clear 75 23.9 75 23.9 100 100 Calm 30.14 1021 7 11 0.00 0.00

Powered by AerisWeather